Simultaneous Nadir Overpasses (SNOs) Predictions

Prediction of SNOs near equator between NOAA-19 and NPP Satellite Orbit:

Table of predicted SNOs near equator for the next 14.0 days since TLE Epoch: 1/14/2012
Index Date (NOAA-19) Time (NOAA-19) NOAA-19 Lat,Lon Date (NPP) Time (NPP) NPP Lat,Lon Distance(km) Time Diff (sec)
1 01/15/2012 17:35:18 29.98, -65.99 01/15/2012 17:32:21 29.78, -66.93 93.24 177
2 01/15/2012 18:26:12 -29.97, 101.29 01/15/2012 18:23:02 -29.79, 100.40 88.05 190
3 01/15/2012 19:17:23 29.95, -91.50 01/15/2012 19:13:51 29.79, -92.31 79.30 212
4 01/15/2012 20:08:17 -29.94, 75.77 01/15/2012 20:04:32 -29.80, 75.02 74.12 225
5 01/15/2012 20:59:29 29.98,-117.04 01/15/2012 20:55:22 29.87,-117.70 65.35 247
6 01/15/2012 21:50:23 -29.97, 50.24 01/15/2012 21:46:02 -29.82, 49.64 60.19 261
7 01/15/2012 22:41:34 29.95,-142.55 01/15/2012 22:36:51 29.82,-143.06 51.41 283
8 01/15/2012 23:32:29 -30.00, 24.71 01/15/2012 23:27:33 -29.89, 24.25 46.13 296
9 01/16/2012 00:23:40 29.97,-168.08 01/16/2012 00:18:22 29.89,-168.46 37.37 318
10 01/16/2012 01:14:34 -29.96, -0.80 01/16/2012 01:09:03 -29.90, -1.13 32.18 331
11 01/16/2012 02:05:45 29.94, 166.41 01/16/2012 01:59:52 29.91, 166.17 23.48 353
12 01/16/2012 02:56:40 -29.99, -26.33 01/16/2012 02:50:34 -29.97, -26.52 18.37 366
13 01/16/2012 03:47:51 29.97, 140.88 01/16/2012 03:41:23 29.98, 140.77 10.02 388
14 01/16/2012 04:38:45 -29.96, -51.85 01/16/2012 04:32:03 -29.93, -51.88 4.86 402
15 01/16/2012 05:26:55 19.39, 118.11 01/16/2012 05:19:52 19.39, 118.12 1.17 423
16 01/16/2012 06:12:48 -1.87, -70.53 01/16/2012 06:05:34 -1.87, -70.52 0.90 434
17 01/16/2012 07:02:30 -3.42, 97.87 01/16/2012 06:54:54 -3.40, 97.95 9.40 456
18 01/16/2012 07:53:37 2.60, -95.04 01/16/2012 07:45:48 2.59, -94.90 15.55 469
19 01/16/2012 08:45:10 -1.40, 71.89 01/16/2012 08:36:59 -1.33, 72.11 26.42 491
20 01/16/2012 09:36:18 0.53,-121.03 01/16/2012 09:27:54 0.46,-120.75 32.34 504
21 01/16/2012 10:27:52 0.73, 45.88 01/16/2012 10:19:05 0.80, 46.26 43.11 527
22 01/16/2012 11:18:59 -1.54,-147.02 01/16/2012 11:09:59 -1.61,-146.58 49.22 540
23 01/16/2012 12:10:32 2.74, 19.91 01/16/2012 12:01:10 2.88, 20.43 59.91 562
24 01/16/2012 13:09:13 -29.98,-179.47 01/16/2012 12:59:35 -30.12,-178.81 65.45 578
25 01/16/2012 14:00:24 29.96, -12.26 01/16/2012 13:50:24 30.12, -11.51 74.18 600
26 01/27/2012 19:41:45 -30.00, 82.39 01/27/2012 19:38:46 -29.79, 81.43 95.88 179
27 01/27/2012 20:32:54 29.99,-110.39 01/27/2012 20:29:35 29.81,-111.28 87.90 199
28 01/27/2012 21:23:50 -29.97, 56.88 01/27/2012 21:20:16 -29.80, 56.05 81.95 214
29 01/27/2012 22:14:59 29.96,-135.91 01/27/2012 22:11:05 29.82,-136.66 73.99 234
30 01/27/2012 23:05:56 -30.00, 31.35 01/27/2012 23:01:47 -29.87, 30.66 67.98 249
31 01/27/2012 23:57:05 29.99,-161.44 01/27/2012 23:52:36 29.89,-162.05 60.06 269
32 01/28/2012 00:48:01 -29.97, 5.83 01/28/2012 00:43:16 -29.83, 5.30 54.14 285
33 01/28/2012 01:39:10 29.96, 173.05 01/28/2012 01:34:05 29.85, 172.59 46.15 305
34 01/28/2012 02:30:07 -30.00, -19.70 01/28/2012 02:24:47 -29.90, -20.10 40.10 320
35 01/28/2012 03:21:16 30.00, 147.52 01/28/2012 03:15:36 29.92, 147.19 32.13 340
36 01/28/2012 04:12:12 -29.97, -45.21 01/28/2012 04:06:17 -29.91, -45.48 26.14 355
37 01/28/2012 05:03:21 29.97, 122.00 01/28/2012 04:57:06 29.93, 121.82 18.21 375
38 01/28/2012 05:54:18 -30.00, -70.74 01/28/2012 05:47:48 -29.98, -70.87 12.28 390
39 01/28/2012 06:45:27 30.00, 96.47 01/28/2012 06:38:37 30.01, 96.42 4.70 410
40 01/28/2012 07:35:21 -26.38, -95.28 01/28/2012 07:28:16 -26.38, -95.28 0.43 425
41 01/28/2012 08:17:48 -4.17, 79.16
